Tracking 28794 objects as of 19-Apr-2024
HD Live streaming from Space Station
objects crossing your sky now

FENGYUN 1C DEB

Track FENGYUN 1C DEB now!
10-day predictions


NORAD ID: 31389
Int'l Code: 1999-025BSV
Perigee: 764.9 km
Apogee: 841.1 km
Inclination: 99.1 °
Period: 100.8 minutes
Semi major axis: 7173 km
RCS: 0.0064 m2 (small)
Launch date: May 10, 1999
Source: People's Republic of China (PRC)
Launch site: Taiyaun Space Center, China (TSC)

Note: This is SATELLITE DEBRIS
Your satellite tracking list
Your tracking list is empty




NASA's NSSDC Master Catalog

Two Line Element Set (TLE):
1 31389U 99025BSV 24109.87884360  .00028174  00000-0  10994-1 0  9995
2 31389  99.0555 229.8560 0053067 172.1694 314.6460 14.28767541877913
Source of the keplerian elements: AFSPC